QAK4937 MMSD-MMAA

Flight info

Callsign QAK4937
Flight time 1h 36m
Altitude 45000
Route ILIGA1A ILIGA J1 ZIH DCT AGLON DCT ANVAN ANVAN1B
Aircraft C750/M-SBDE3FGHRWXY/S

Departure

Time 2026-05-05 00:53
Airport Los Cabos International Airport (MMSD)

Arrival

Time 2026-05-05 02:29
Airport General Juan N. Álvarez International Airport (MMAA)
Time Latitude Longitude Altitude Speed Heading
2026-05-05 00:28 23.16486 -109.71899 383 ft 0 kts 354°
2026-05-05 00:48 23.16490 -109.71899 383 ft 1 kts 354°
2026-05-05 00:48 23.16501 -109.71903 383 ft 3 kts 331°
2026-05-05 00:48 23.16517 -109.71933 383 ft 5 kts 320°
2026-05-05 00:49 23.16537 -109.71940 383 ft 4 kts 351°
2026-05-05 00:49 23.16585 -109.71946 383 ft 9 kts 353°
2026-05-05 00:49 23.16645 -109.71953 383 ft 8 kts 354°
2026-05-05 00:49 23.16699 -109.71959 383 ft 7 kts 353°
2026-05-05 00:50 23.16747 -109.71967 383 ft 5 kts 336°
2026-05-05 00:50 23.16756 -109.71995 383 ft 6 kts 271°
2026-05-05 00:50 23.16722 -109.72041 383 ft 9 kts 180°
2026-05-05 00:50 23.16663 -109.72034 383 ft 8 kts 173°
2026-05-05 00:51 23.16622 -109.72038 383 ft 4 kts 219°
2026-05-05 00:51 23.16611 -109.72069 383 ft 8 kts 263°
2026-05-05 00:51 23.16605 -109.72138 384 ft 8 kts 264°
2026-05-05 00:51 23.16590 -109.72182 385 ft 5 kts 234°
2026-05-05 00:52 23.16579 -109.72189 385 ft 1 kts 209°
2026-05-05 00:52 23.16558 -109.72202 385 ft 6 kts 217°
2026-05-05 00:52 23.16540 -109.72227 385 ft 3 kts 206°
2026-05-05 00:52 23.16454 -109.72218 384 ft 42 kts 174°
2026-05-05 00:53 23.15774 -109.72139 405 ft 138 kts 172°
2026-05-05 00:53 23.14824 -109.72057 1146 ft 136 kts 175°
2026-05-05 00:53 23.13815 -109.71941 1685 ft 157 kts 173°
2026-05-05 00:53 23.12670 -109.71744 2187 ft 178 kts 169°
2026-05-05 00:54 23.11428 -109.71266 2685 ft 203 kts 156°
2026-05-05 00:54 23.10030 -109.70582 3194 ft 234 kts 155°
2026-05-05 00:54 23.08650 -109.69530 3766 ft 251 kts 138°
2026-05-05 00:54 23.07296 -109.68121 4103 ft 282 kts 131°
2026-05-05 00:55 23.06164 -109.66437 5369 ft 275 kts 123°
2026-05-05 00:55 23.05104 -109.64648 6195 ft 288 kts 123°
2026-05-05 00:55 23.03992 -109.62800 7001 ft 298 kts 124°
2026-05-05 00:55 23.02786 -109.60796 7089 ft 339 kts 124°
2026-05-05 00:56 23.01448 -109.58555 7121 ft 367 kts 123°
2026-05-05 00:56 23.00056 -109.56218 7903 ft 360 kts 123°
2026-05-05 00:56 22.98747 -109.54024 9557 ft 331 kts 124°
2026-05-05 00:56 22.97544 -109.52019 11069 ft 304 kts 124°
2026-05-05 00:57 22.96389 -109.50102 12062 ft 306 kts 125°
2026-05-05 00:57 22.95220 -109.48155 12960 ft 309 kts 125°
2026-05-05 00:57 22.94045 -109.46194 13893 ft 311 kts 125°
2026-05-05 00:57 22.92857 -109.44215 14687 ft 315 kts 126°
2026-05-05 00:58 22.91665 -109.42232 15427 ft 320 kts 126°
2026-05-05 00:58 22.90424 -109.40166 16230 ft 325 kts 126°
2026-05-05 00:58 22.89197 -109.38125 17030 ft 330 kts 126°
2026-05-05 00:58 22.87863 -109.36085 17787 ft 334 kts 132°
2026-05-05 00:59 22.86375 -109.34120 18509 ft 342 kts 133°
2026-05-05 00:59 22.84821 -109.32039 18659 ft 369 kts 132°
2026-05-05 00:59 22.83171 -109.29805 19001 ft 385 kts 131°
2026-05-05 00:59 22.81495 -109.27543 19834 ft 386 kts 132°
2026-05-05 01:00 22.79791 -109.25267 20543 ft 392 kts 132°
2026-05-05 01:00 22.78063 -109.22961 21280 ft 397 kts 132°
2026-05-05 01:00 22.76315 -109.20616 22019 ft 402 kts 132°
2026-05-05 01:00 22.74543 -109.18239 22749 ft 408 kts 132°
2026-05-05 01:01 22.72746 -109.15836 23492 ft 413 kts 132°
2026-05-05 01:01 22.70926 -109.13405 24113 ft 418 kts 132°
2026-05-05 01:01 22.69089 -109.10948 24758 ft 422 kts 132°
2026-05-05 01:01 22.67232 -109.08465 25399 ft 426 kts 132°
2026-05-05 01:02 22.65356 -109.05961 26045 ft 430 kts 132°
2026-05-05 01:02 22.63460 -109.03430 26689 ft 435 kts 132°
2026-05-05 01:02 22.61546 -109.00876 27328 ft 439 kts 132°
2026-05-05 01:02 22.59623 -108.98310 28140 ft 438 kts 132°
2026-05-05 01:03 22.57710 -108.95757 29049 ft 436 kts 132°
2026-05-05 01:03 22.55800 -108.93214 29873 ft 435 kts 133°
2026-05-05 01:03 22.53893 -108.90677 30600 ft 434 kts 133°
2026-05-05 01:03 22.52000 -108.88155 31352 ft 431 kts 133°
2026-05-05 01:04 22.50114 -108.85646 32066 ft 429 kts 133°
2026-05-05 01:04 22.46373 -108.80673 33510 ft 424 kts 133°
2026-05-05 01:04 22.44517 -108.78208 34200 ft 422 kts 133°
2026-05-05 01:05 22.42667 -108.75752 34777 ft 421 kts 133°
2026-05-05 01:05 22.40813 -108.73293 35330 ft 421 kts 133°
2026-05-05 01:05 22.38964 -108.70840 35895 ft 421 kts 133°
2026-05-05 01:05 22.37114 -108.68385 36459 ft 421 kts 133°
2026-05-05 01:06 22.35266 -108.65937 37017 ft 421 kts 133°
2026-05-05 01:06 22.33417 -108.63488 37583 ft 420 kts 133°
2026-05-05 01:06 22.31573 -108.61045 38155 ft 420 kts 133°
2026-05-05 01:06 22.29725 -108.58599 38696 ft 420 kts 133°
2026-05-05 01:07 22.27878 -108.56157 39187 ft 419 kts 133°
2026-05-05 01:07 22.26062 -108.53754 39689 ft 418 kts 133°
2026-05-05 01:07 22.24226 -108.51328 40192 ft 417 kts 133°
2026-05-05 01:07 22.22391 -108.48904 40677 ft 416 kts 133°
2026-05-05 01:08 22.20562 -108.46489 41158 ft 415 kts 133°
2026-05-05 01:08 22.18737 -108.44080 41632 ft 414 kts 134°
2026-05-05 01:08 22.16915 -108.41676 42094 ft 413 kts 134°
2026-05-05 01:08 22.15098 -108.39281 42536 ft 412 kts 134°
2026-05-05 01:09 22.13260 -108.36858 42958 ft 412 kts 134°
2026-05-05 01:09 22.11447 -108.34469 43358 ft 411 kts 134°
2026-05-05 01:09 22.09636 -108.32084 43760 ft 411 kts 134°
2026-05-05 01:09 22.07830 -108.29707 44141 ft 410 kts 134°
2026-05-05 01:10 22.06045 -108.27358 44510 ft 410 kts 134°
2026-05-05 01:10 22.04217 -108.24955 44813 ft 409 kts 134°
2026-05-05 01:10 22.02404 -108.22572 44928 ft 414 kts 134°
2026-05-05 01:10 22.00583 -108.20184 44922 ft 422 kts 134°
2026-05-05 01:11 21.96784 -108.15193 44943 ft 439 kts 134°
2026-05-05 01:11 21.92841 -108.10022 44942 ft 455 kts 134°
2026-05-05 01:12 21.88757 -108.04669 44945 ft 470 kts 134°
2026-05-05 01:12 21.84539 -107.99146 44944 ft 485 kts 134°
2026-05-05 01:13 21.80191 -107.93458 44939 ft 497 kts 133°
2026-05-05 01:13 21.75778 -107.87691 44937 ft 502 kts 133°
2026-05-05 01:14 21.71316 -107.81869 44943 ft 506 kts 133°
2026-05-05 01:14 21.66828 -107.76017 44941 ft 509 kts 133°
2026-05-05 01:15 21.62315 -107.70140 44944 ft 511 kts 133°
2026-05-05 01:15 21.57782 -107.64243 44941 ft 512 kts 133°
2026-05-05 01:16 21.53239 -107.58340 44937 ft 514 kts 133°
2026-05-05 01:16 21.48680 -107.52422 44941 ft 514 kts 133°
2026-05-05 01:17 21.44115 -107.46503 44945 ft 515 kts 133°
2026-05-05 01:17 21.39542 -107.40581 44941 ft 515 kts 133°
2026-05-05 01:18 21.34963 -107.34656 44941 ft 516 kts 133°
2026-05-05 01:18 21.30377 -107.28732 44945 ft 516 kts 133°
2026-05-05 01:19 21.25790 -107.22811 44943 ft 516 kts 133°
2026-05-05 01:19 21.21194 -107.16886 44943 ft 517 kts 133°
2026-05-05 01:20 21.16597 -107.10966 44940 ft 517 kts 133°
2026-05-05 01:20 21.12777 -107.06051 44944 ft 517 kts 133°
2026-05-05 01:21 21.08177 -107.00138 44945 ft 517 kts 133°
2026-05-05 01:21 21.03575 -106.94230 44937 ft 516 kts 133°
2026-05-05 01:22 20.98972 -106.88326 44940 ft 516 kts 133°
2026-05-05 01:22 20.94371 -106.82430 44937 ft 516 kts 133°
2026-05-05 01:23 20.89769 -106.76541 44936 ft 516 kts 133°
2026-05-05 01:23 20.85168 -106.70658 44932 ft 515 kts 133°
2026-05-05 01:24 20.80573 -106.64789 44933 ft 515 kts 133°
2026-05-05 01:24 20.76010 -106.58967 44933 ft 514 kts 133°
2026-05-05 01:25 20.71421 -106.53118 44933 ft 513 kts 133°
2026-05-05 01:25 20.66837 -106.47282 44930 ft 512 kts 133°
2026-05-05 01:26 20.62255 -106.41453 44931 ft 512 kts 133°
2026-05-05 01:26 20.57683 -106.35645 44930 ft 511 kts 133°
2026-05-05 01:27 20.53110 -106.29839 44927 ft 510 kts 133°
2026-05-05 01:27 20.48545 -106.24051 44924 ft 510 kts 133°
2026-05-05 01:28 20.43981 -106.18268 44922 ft 509 kts 133°
2026-05-05 01:28 20.39422 -106.12498 44917 ft 508 kts 133°
2026-05-05 01:29 20.34867 -106.06739 44919 ft 508 kts 133°
2026-05-05 01:29 20.30314 -106.00988 44919 ft 507 kts 133°
2026-05-05 01:30 20.25764 -105.95246 44918 ft 507 kts 133°
2026-05-05 01:30 20.21219 -105.89517 44912 ft 506 kts 132°
2026-05-05 01:31 20.16673 -105.83792 44910 ft 506 kts 132°
2026-05-05 01:31 20.12130 -105.78077 44908 ft 506 kts 132°
2026-05-05 01:32 20.07585 -105.72365 44898 ft 506 kts 133°
2026-05-05 01:32 20.03075 -105.66702 44909 ft 505 kts 132°
2026-05-05 01:33 19.98532 -105.61003 44902 ft 505 kts 132°
2026-05-05 01:33 19.93989 -105.55310 44901 ft 505 kts 132°
2026-05-05 01:34 19.89448 -105.49625 44901 ft 505 kts 132°
2026-05-05 01:34 19.84903 -105.43941 44896 ft 505 kts 132°
2026-05-05 01:35 19.80355 -105.38263 44899 ft 504 kts 132°
2026-05-05 01:35 19.75809 -105.32588 44897 ft 504 kts 132°
2026-05-05 01:36 19.71264 -105.26924 44897 ft 504 kts 132°
2026-05-05 01:36 19.66712 -105.21255 44900 ft 504 kts 132°
2026-05-05 01:37 19.62164 -105.15596 44901 ft 504 kts 132°
2026-05-05 01:37 19.57614 -105.09940 44902 ft 504 kts 132°
2026-05-05 01:38 19.53056 -105.04280 44899 ft 504 kts 132°
2026-05-05 01:38 19.48498 -104.98626 44901 ft 504 kts 132°
2026-05-05 01:39 19.43939 -104.92975 44900 ft 504 kts 132°
2026-05-05 01:39 19.39407 -104.87363 44896 ft 504 kts 132°
2026-05-05 01:40 19.34844 -104.81715 44890 ft 505 kts 132°
2026-05-05 01:40 19.30281 -104.76070 44881 ft 505 kts 132°
2026-05-05 01:41 19.25708 -104.70419 44875 ft 505 kts 132°
2026-05-05 01:41 19.21137 -104.64775 44862 ft 505 kts 132°
2026-05-05 01:42 19.16557 -104.59126 44867 ft 505 kts 132°
2026-05-05 01:42 19.12739 -104.52880 44866 ft 508 kts 118°
2026-05-05 01:43 19.09675 -104.46144 44875 ft 508 kts 118°
2026-05-05 01:43 19.06326 -104.39567 44888 ft 508 kts 118°
2026-05-05 01:44 19.03150 -104.32890 44897 ft 509 kts 118°
2026-05-05 01:44 18.99859 -104.26257 44899 ft 509 kts 119°
2026-05-05 01:45 18.96624 -104.19599 44901 ft 510 kts 118°
2026-05-05 01:45 18.93356 -104.12954 44897 ft 510 kts 119°
2026-05-05 01:46 18.90094 -104.06305 44895 ft 510 kts 118°
2026-05-05 01:46 18.86824 -103.99648 44902 ft 510 kts 118°
2026-05-05 01:47 18.83550 -103.92998 44902 ft 512 kts 118°
2026-05-05 01:47 18.80264 -103.86323 44914 ft 512 kts 118°
2026-05-05 01:48 18.76975 -103.79654 44918 ft 512 kts 118°
2026-05-05 01:48 18.73690 -103.72999 44923 ft 512 kts 118°
2026-05-05 01:49 18.70396 -103.66336 44924 ft 512 kts 118°
2026-05-05 01:49 18.67103 -103.59681 44928 ft 512 kts 119°
2026-05-05 01:50 18.63805 -103.53025 44936 ft 512 kts 119°
2026-05-05 01:50 18.60502 -103.46363 44938 ft 513 kts 119°
2026-05-05 01:51 18.57197 -103.39707 44951 ft 513 kts 119°
2026-05-05 01:51 18.53885 -103.33044 44950 ft 513 kts 119°
2026-05-05 01:52 18.50570 -103.26381 44948 ft 514 kts 119°
2026-05-05 01:52 18.47248 -103.19710 44942 ft 514 kts 119°
2026-05-05 01:53 18.43922 -103.13041 44950 ft 514 kts 119°
2026-05-05 01:53 18.40614 -103.06415 44943 ft 515 kts 119°
2026-05-05 01:54 18.37281 -102.99745 44940 ft 515 kts 119°
2026-05-05 01:54 18.33943 -102.93073 44934 ft 515 kts 119°
2026-05-05 01:55 18.30602 -102.86402 44924 ft 515 kts 119°
2026-05-05 01:55 18.27256 -102.79727 44917 ft 516 kts 119°
2026-05-05 01:56 18.25922 -102.77068 44917 ft 516 kts 119°
2026-05-05 01:56 18.22874 -102.70999 44917 ft 516 kts 119°
2026-05-05 01:57 18.19518 -102.64320 44913 ft 517 kts 119°
2026-05-05 01:57 18.16152 -102.57631 44905 ft 517 kts 119°
2026-05-05 01:58 18.12807 -102.50989 44904 ft 518 kts 119°
2026-05-05 01:58 18.09439 -102.44310 44900 ft 518 kts 119°
2026-05-05 01:59 18.06058 -102.37609 44892 ft 518 kts 119°
2026-05-05 01:59 18.02679 -102.30924 44891 ft 518 kts 119°
2026-05-05 02:00 17.99296 -102.24236 44897 ft 518 kts 119°
2026-05-05 02:00 17.95913 -102.17554 44904 ft 518 kts 119°
2026-05-05 02:01 17.92526 -102.10871 44910 ft 518 kts 119°
2026-05-05 02:01 17.89134 -102.04186 44900 ft 519 kts 119°
2026-05-05 02:02 17.85742 -101.97508 44901 ft 518 kts 119°
2026-05-05 02:02 17.82349 -101.90834 44904 ft 518 kts 119°
2026-05-05 02:03 17.78952 -101.84162 44901 ft 518 kts 119°
2026-05-05 02:03 17.75553 -101.77491 44898 ft 518 kts 119°
2026-05-05 02:04 17.72155 -101.70830 44896 ft 518 kts 119°
2026-05-05 02:04 17.68750 -101.64160 44894 ft 518 kts 119°
2026-05-05 02:05 17.65343 -101.57495 44686 ft 522 kts 119°
2026-05-05 02:05 17.63596 -101.54082 43879 ft 535 kts 119°
2026-05-05 02:05 17.61848 -101.50664 43152 ft 529 kts 119°
2026-05-05 02:06 17.60128 -101.47280 42447 ft 521 kts 118°
2026-05-05 02:06 17.58521 -101.43920 41766 ft 512 kts 117°
2026-05-05 02:06 17.56913 -101.40622 41093 ft 505 kts 118°
2026-05-05 02:06 17.55319 -101.37374 40429 ft 499 kts 117°
2026-05-05 02:07 17.53757 -101.34144 39767 ft 495 kts 117°
2026-05-05 02:07 17.52214 -101.30934 39112 ft 491 kts 117°
2026-05-05 02:07 17.50675 -101.27761 38437 ft 487 kts 117°
2026-05-05 02:07 17.49139 -101.24614 37770 ft 482 kts 117°
2026-05-05 02:08 17.47629 -101.21510 37132 ft 476 kts 117°
2026-05-05 02:08 17.46140 -101.18433 36499 ft 471 kts 117°
2026-05-05 02:08 17.44665 -101.15394 35881 ft 466 kts 117°
2026-05-05 02:08 17.43199 -101.12390 35266 ft 461 kts 117°
2026-05-05 02:09 17.41747 -101.09411 34659 ft 457 kts 117°
2026-05-05 02:09 17.40794 -101.07449 34257 ft 456 kts 117°
2026-05-05 02:09 17.39357 -101.04493 33622 ft 455 kts 117°
2026-05-05 02:09 17.37919 -101.01543 33014 ft 455 kts 117°
2026-05-05 02:10 17.36481 -100.98595 32410 ft 456 kts 117°
2026-05-05 02:10 17.35033 -100.95625 31804 ft 461 kts 117°
2026-05-05 02:10 17.33566 -100.92614 31182 ft 465 kts 117°
2026-05-05 02:10 17.31615 -100.88620 30366 ft 466 kts 116°
2026-05-05 02:11 17.30618 -100.86580 29938 ft 466 kts 116°
2026-05-05 02:11 17.29148 -100.83571 29283 ft 464 kts 116°
2026-05-05 02:11 17.27683 -100.80572 28664 ft 460 kts 116°
2026-05-05 02:11 17.26231 -100.77603 28055 ft 457 kts 116°
2026-05-05 02:12 17.24808 -100.74695 27455 ft 453 kts 116°
2026-05-05 02:12 17.21958 -100.68873 26255 ft 446 kts 116°
2026-05-05 02:12 17.20552 -100.66003 25663 ft 442 kts 116°
2026-05-05 02:13 17.19158 -100.63158 25078 ft 438 kts 116°
2026-05-05 02:13 17.17775 -100.60338 24498 ft 434 kts 116°
2026-05-05 02:13 17.16405 -100.57546 23923 ft 430 kts 116°
2026-05-05 02:13 17.15046 -100.54775 23327 ft 426 kts 115°
2026-05-05 02:14 17.13702 -100.52039 22739 ft 420 kts 115°
2026-05-05 02:14 17.12381 -100.49349 22186 ft 413 kts 115°
2026-05-05 02:14 17.11077 -100.46696 21636 ft 408 kts 115°
2026-05-05 02:14 17.09789 -100.44074 21100 ft 403 kts 115°
2026-05-05 02:15 17.08515 -100.41484 20566 ft 398 kts 115°
2026-05-05 02:15 17.07257 -100.38925 20033 ft 394 kts 115°
2026-05-05 02:15 17.06008 -100.36387 19516 ft 391 kts 115°
2026-05-05 02:15 17.04769 -100.33871 19000 ft 388 kts 115°
2026-05-05 02:16 17.03542 -100.31379 18484 ft 385 kts 115°
2026-05-05 02:16 17.02322 -100.28903 17943 ft 382 kts 115°
2026-05-05 02:16 17.01114 -100.26452 17419 ft 377 kts 115°
2026-05-05 02:16 16.99922 -100.24035 16944 ft 372 kts 115°
2026-05-05 02:17 16.98875 -100.21609 16535 ft 362 kts 108°
2026-05-05 02:17 16.98112 -100.19119 16089 ft 358 kts 105°
2026-05-05 02:17 16.97383 -100.16642 15617 ft 356 kts 106°
2026-05-05 02:17 16.96630 -100.14221 15153 ft 359 kts 107°
2026-05-05 02:18 16.95828 -100.11701 14669 ft 372 kts 107°
2026-05-05 02:18 16.95027 -100.09133 14168 ft 370 kts 107°
2026-05-05 02:18 16.94552 -100.07587 13865 ft 367 kts 107°
2026-05-05 02:18 16.93773 -100.05064 13361 ft 363 kts 107°
2026-05-05 02:19 16.92998 -100.02582 12872 ft 357 kts 107°
2026-05-05 02:19 16.92232 -100.00130 12396 ft 353 kts 107°
2026-05-05 02:19 16.91477 -99.97703 11934 ft 350 kts 107°
2026-05-05 02:19 16.90726 -99.95283 11459 ft 351 kts 107°
2026-05-05 02:20 16.89970 -99.92856 10999 ft 353 kts 107°
2026-05-05 02:20 16.89204 -99.90405 10526 ft 357 kts 107°
2026-05-05 02:20 16.88444 -99.87973 10055 ft 343 kts 108°
2026-05-05 02:20 16.87723 -99.85670 9591 ft 324 kts 108°
2026-05-05 02:21 16.87045 -99.83496 9151 ft 308 kts 108°
2026-05-05 02:21 16.86392 -99.81403 8753 ft 302 kts 108°
2026-05-05 02:21 16.85743 -99.79325 8357 ft 299 kts 108°
2026-05-05 02:21 16.85101 -99.77275 7964 ft 293 kts 108°
2026-05-05 02:22 16.84476 -99.75276 7583 ft 287 kts 109°
2026-05-05 02:22 16.83862 -99.73314 7202 ft 282 kts 109°
2026-05-05 02:22 16.83258 -99.71385 6818 ft 278 kts 109°
2026-05-05 02:22 16.82669 -99.69506 6463 ft 274 kts 109°
2026-05-05 02:23 16.82086 -99.67643 6097 ft 263 kts 109°
2026-05-05 02:23 16.81526 -99.65855 5725 ft 256 kts 110°
2026-05-05 02:23 16.80984 -99.64128 5393 ft 246 kts 109°
2026-05-05 02:23 16.80460 -99.62456 5073 ft 239 kts 110°
2026-05-05 02:24 16.79942 -99.60808 4777 ft 239 kts 110°
2026-05-05 02:24 16.79415 -99.59140 4470 ft 239 kts 110°
2026-05-05 02:24 16.78590 -99.57674 4061 ft 236 kts 138°
2026-05-05 02:24 16.77186 -99.56893 3814 ft 227 kts 167°
2026-05-05 02:25 16.75645 -99.56931 3538 ft 221 kts 195°
2026-05-05 02:25 16.74196 -99.57417 3327 ft 218 kts 200°
2026-05-05 02:25 16.72764 -99.57954 3037 ft 217 kts 206°
2026-05-05 02:25 16.71683 -99.59005 2699 ft 214 kts 238°
2026-05-05 02:26 16.71239 -99.60453 2423 ft 211 kts 266°
2026-05-05 02:26 16.71511 -99.61932 2185 ft 211 kts 285°
2026-05-05 02:26 16.71967 -99.63390 1922 ft 211 kts 287°
2026-05-05 02:26 16.72386 -99.64730 1650 ft 179 kts 287°
2026-05-05 02:27 16.72749 -99.65891 1414 ft 158 kts 288°
2026-05-05 02:27 16.73071 -99.66919 1229 ft 141 kts 287°
2026-05-05 02:27 16.73362 -99.67852 1067 ft 129 kts 287°
2026-05-05 02:27 16.73621 -99.68691 930 ft 114 kts 288°
2026-05-05 02:28 16.73858 -99.69457 799 ft 110 kts 287°
2026-05-05 02:28 16.74102 -99.70230 662 ft 116 kts 287°
2026-05-05 02:28 16.74351 -99.71035 516 ft 117 kts 287°
2026-05-05 02:28 16.74612 -99.71866 399 ft 125 kts 287°
2026-05-05 02:29 16.74880 -99.72753 209 ft 128 kts 287°
2026-05-05 02:29 16.75159 -99.73616 34 ft 122 kts 287°
2026-05-05 02:29 16.75389 -99.74356 19 ft 82 kts 288°
2026-05-05 02:29 16.75511 -99.74742 17 ft 32 kts 288°
2026-05-05 02:30 16.75536 -99.74818 17 ft 21 kts 289°
2026-05-05 02:30 16.75578 -99.74913 17 ft 21 kts 300°
2026-05-05 02:30 16.75673 -99.75026 19 ft 20 kts 322°
2026-05-05 02:30 16.75753 -99.75073 17 ft 19 kts 334°
2026-05-05 02:31 16.75838 -99.75111 17 ft 18 kts 340°
2026-05-05 02:31 16.75944 -99.75157 17 ft 14 kts 338°
2026-05-05 02:31 16.76007 -99.75164 17 ft 6 kts 56°
2026-05-05 02:31 16.76030 -99.75121 17 ft 9 kts 69°
2026-05-05 02:32 16.76058 -99.75050 17 ft 0 kts 63°
2026-05-05 02:32 16.76059 -99.75048 17 ft 4 kts 63°
2026-05-05 02:32 16.76092 -99.74980 19 ft 9 kts 44°
2026-05-05 02:32 16.76100 -99.74978 18 ft 6 kts
2026-05-05 02:33 16.76110 -99.74982 17 ft 2 kts 322°
2026-05-05 02:33 16.76103 -99.75013 18 ft 9 kts 249°
2026-05-05 02:33 16.76102 -99.75017 18 ft 0 kts 249°